Zurück zum Katalog

STARLINK-4294

AktivKommunikationVLEO
NORAD 53176·PAYLOAD·🇺🇸 United States

Gestartet Jul 17, 2022 von Cape Canaveral Space Force Station

Loading…

Nächste Überflüge (nächste 24 Stunden)

TLE

AktuellSource: CelesTrak SupGP

Epoche: Sep 15, 2026, 02:38 UTC

1 53176C 22083AW  26258.11020833  .00001377  00000+0  44268-4 0  2581
2 53176  53.1608   7.8993 0001236  83.9965 298.3498 15.31708174    16

Verfolge STARLINK-4294 in Echtzeit mit AllMySat

Download on the App Store